QPF
0.00 0.00 0.00 0.00 0.00 0.00 0.00 0.00 0.00 0.00 0.00 0.00 0.00 0.00 0.00 0.00 0.00 0.00 0.00 0.00 0.00 0.00 0.00 0.00 0.00 0.00 0.00 0.00 0.00 0.00 0.00 0.00 0.00 0.00 0.00 0.00 0.00 0.00 0.00 0.00 0.00 0.00 0.00 0.00
0.00 0.00 0.00 0.00 0.00 0.00 0.00 0.00 0.00 0.00 0.00 0.00 0.00 0.00 0.00 0.00 0.00 0.00 0.00 0.00 0.00 0.00 0.00 0.00 0.00 0.00 0.00 0.00 0.00 0.00 0.00 0.00 0.00 0.00 0.00 0.00 0.00 0.00 0.00 0.00 0.00 0.00 0.00 0.00
0.00 0.00 0.00 0.00 0.00 0.00 0.00 0.00 0.00 0.00 0.00 0.00 0.00 0.00 0.00 0.00 0.00 0.00 0.00 0.00 0.00 0.00 0.00 0.00 0.00 0.00 0.00 0.00 0.00 0.00 0.00 0.00 0.00 0.00 0.00 0.00 0.00 0.00 0.00 0.00 0.00 0.00 0.00 0.00
0.00 0.00 0.00 0.00 0.00 0.00 0.00 0.00 0.00 0.00 0.00 0.00 0.00 0.00 0.00 0.00 0.00 0.00 0.00 0.00 0.00 0.00 0.00 0.00 0.00 0.00 0.00 0.00 0.00 0.00 0.00 0.00 0.00 0.00 0.00 0.00 0.00 0.00 0.00 0.00 0.00 0.00 0.00 0.00
0.00 0.00 0.00 0.00 0.00 0.00 0.00 0.00 0.00 0.00 0.00 0.00 0.00 0.00 0.00 0.00 0.00 0.00 0.00 0.00 0.00 0.00 0.00 0.00 0.00 0.00 0.00 0.00 0.00 0.00 0.00 0.00 0.00 0.00 0.00 0.00 0.00 0.00 0.00 0.00 0.00 0.00 0.00 0.00
0.00 0.00 0.00 0.00 0.00 0.00 0.00 0.00 0.00 0.00 0.00 0.00 0.00 0.00 0.00 0.00 0.00 0.00 0.00 0.00 0.00 0.00 0.00 0.00 0.00 0.00 0.00 0.00 0.00 0.00 0.00 0.00 0.00 0.00 0.00 0.00 0.00 0.00 0.00 0.00 0.00 0.00 0.00 0.00
0.00 0.00 0.00 0.00 0.00 0.00 0.00 0.00 0.00 0.00 0.00 0.00 0.00 0.00 0.00 0.00 0.00 0.00 0.00 0.00 0.00 0.00 0.00 0.00 0.00 0.00 0.00 0.00 0.00 0.00 0.00 0.00 0.00 0.00 0.00 0.00 0.00 0.00 0.00 0.00 0.00 0.00 0.00 0.00
0.00 0.00 0.00 0.00 0.00 0.00 0.00 0.00 0.00 0.00 0.00 0.00 0.00 0.00 0.00 0.00 0.00 0.00 0.00 0.00 0.00 0.00 0.00 0.00 0.00 0.00 0.00 0.00 0.00 0.00 0.00 0.00 0.00 0.00 0.00 0.00 0.00 0.00 0.00 0.00 0.00 0.00 0.00 0.00
0.00 0.00 0.00 0.00 0.00 0.00 0.00 0.00 0.00 0.00 0.00 0.00 0.00 0.00 0.00 0.00 0.00 0.00 0.00 0.00 0.00 0.00 0.00 0.00 0.00 0.00 0.00 0.00 0.00 0.00 0.00 0.00 0.00 0.00 0.00 0.00 0.00 0.00 0.00 0.00 0.00 0.00 0.00 0.00
0.00 0.00 0.00 0.00 0.00 0.00 0.00 0.00 0.00 0.00 0.00 0.00 0.00 0.00 0.00 0.00 0.00 0.00 0.00 0.00 0.00 0.00 0.00 0.00 0.00 0.00 0.00 0.00 0.00 0.00 0.00 0.00 0.00 0.00 0.00 0.00 0.00 0.00 0.00 0.00 0.00 0.00 0.00 0.00
0.00 0.00 0.00 0.00 0.00 0.00 0.00 0.00 0.00 0.00 0.00 0.00 0.00 0.00 0.00 0.00 0.00 0.00 0.00 0.00 0.00 0.00 0.00 0.00 0.00 0.00 0.00 0.00 0.00 0.00 0.00 0.00 0.00 0.00 0.00 0.00 0.00 0.00 0.00 0.00 0.00 0.00 0.00 0.00
0.00 0.00 0.00 0.00 0.00 0.00 0.00 0.00 0.00 0.00 0.00 0.00 0.00 0.00 0.00 0.00 0.00 0.00 0.00 0.00 0.00 0.00 0.00 0.00 0.00 0.00 0.00 0.00 0.00 0.00 0.00 0.00 0.00 0.00 0.00 0.00 0.00 0.00 0.00 0.00 0.00 0.00 0.00 0.00
0.00 0.00 0.00 0.00 0.00 0.00 0.00 0.00 0.00 0.00 0.00 0.00 0.00 0.00 0.00 0.00 0.00 0.00 0.00 0.00 0.00 0.00 0.00 0.00 0.00 0.00 0.00 0.00 0.00 0.00 0.00 0.00 0.00 0.00 0.00 0.00 0.00 0.00 0.00 0.00 0.00 0.00 0.00 0.00
0.00 0.00 0.00 0.00 0.00 0.00 0.00 0.00 0.00 0.00 0.00 0.00 0.00 0.00 0.00 0.00 0.00 0.00 0.00 0.00 0.00 0.00 0.00 0.00 0.00 0.00 0.00 0.00 0.00 0.00 0.00 0.00 0.00 0.00 0.00 0.00 0.00 0.00 0.00 0.00 0.00 0.00 0.00 0.00
0.00 0.00 0.00 0.00 0.00 0.00 0.00 0.00 0.00 0.00 0.00 0.00 0.00 0.00 0.00 0.00 0.00 0.00 0.00 0.00 0.00 0.00 0.00 0.00 0.00 0.00 0.00 0.00 0.00 0.00 0.00 0.00 0.00 0.00 0.00 0.00 0.00 0.00 0.00 0.00 0.00 0.00 0.00 0.00
0.00 0.00 0.00 0.00 0.00 0.00 0.00 0.00 0.00 0.00 0.00 0.00 0.00 0.00 0.00 0.00 0.00 0.00 0.00 0.00 0.00 0.00 0.00 0.00 0.00 0.00 0.00 0.00 0.00 0.00 0.00 0.00 0.00 0.00 0.00 0.00 0.00 0.00 0.00 0.00 0.00 0.00 0.00 0.00
0.00 0.00 0.00 0.00 0.00 0.00 0.00 0.00 0.00 0.00 0.00 0.00 0.00 0.00 0.00 0.00 0.00 0.00 0.00 0.00 0.00 0.00 0.00 0.00 0.00 0.00 0.00 0.00 0.00 0.00 0.00 0.00 0.00 0.00 0.00 0.00 0.00 0.00 0.00 0.00 0.00 0.00 0.00 0.00
0.00 0.00 0.00 0.00 0.00 0.00 0.00 0.00 0.00 0.00 0.00 0.00 0.00 0.00 0.00 0.00 0.00 0.00 0.00 0.00 0.00 0.00 0.00 0.00 0.00 0.00 0.00 0.00 0.00 0.00 0.00 0.00 0.00 0.00 0.00 0.00 0.00 0.00 0.00 0.00 0.00 0.00 0.00 0.00
0.00 0.00 0.00 0.00 0.00 0.00 0.00 0.00 0.00 0.00 0.00 0.00 0.00 0.00 0.00 0.00 0.00 0.00 0.00 0.00 0.00 0.00 0.00 0.00 0.00 0.00 0.00 0.00 0.00 0.00 0.00 0.00 0.00 0.00 0.00 0.00 0.00 0.00 0.00 0.00 0.00 0.00 0.00 0.00
0.00 0.00 0.00 0.00 0.00 0.00 0.00 0.00 0.00 0.00 0.00 0.00 0.00 0.00 0.00 0.00 0.00 0.00 0.00 0.00 0.00 0.00 0.00 0.00 0.00 0.00 0.00 0.00 0.00 0.00 0.00 0.00 0.00 0.00 0.00 0.00 0.00 0.00 0.00 0.00 0.00 0.00 0.00 0.00
0.00 0.00 0.00 0.00 0.00 0.00 0.00 0.00 0.00 0.00 0.00 0.00 0.00 0.00 0.00 0.00 0.00 0.00 0.00 0.00 0.00 0.00 0.00 0.00 0.00 0.00 0.00 0.00 0.00 0.00 0.00 0.00 0.00 0.00 0.00 0.00 0.00 0.00 0.00 0.00 0.00 0.00 0.00 0.00
0.00 0.00 0.00 0.00 0.00 0.00 0.00 0.00 0.00 0.00 0.00 0.00 0.00 0.00 0.00 0.00 0.00 0.00 0.00 0.00 0.00 0.00 0.00 0.00 0.00 0.00 0.00 0.00 0.00 0.00 0.00 0.00 0.00 0.00 0.00 0.00 0.00 0.00 0.00 0.00 0.00 0.00 0.00 0.00
0.00 0.00 0.00 0.00 0.00 0.00 0.00 0.00 0.00 0.00 0.00 0.00 0.00 0.00 0.00 0.00 0.00 0.00 0.00 0.00 0.00 0.00 0.00 0.00 0.00 0.00 0.00 0.00 0.00 0.00 0.00 0.00 0.00 0.00 0.00 0.00 0.00 0.00 0.00 0.00 0.00 0.00 0.00 0.00
0.00 0.00 0.00 0.00 0.00 0.00 0.00 0.00 0.00 0.00 0.00 0.00 0.00 0.00 0.00 0.00 0.00 0.00 0.00 0.00 0.00 0.00 0.00 0.00 0.00 0.00 0.00 0.00 0.00 0.00 0.00 0.00 0.00 0.00 0.00 0.00 0.00 0.00 0.00 0.00 0.00 0.00 0.00 0.01
0.00 0.00 0.00 0.00 0.00 0.00 0.00 0.00 0.00 0.00 0.00 0.00 0.00 0.00 0.00 0.00 0.00 0.00 0.00 0.00 0.00 0.00 0.00 0.00 0.00 0.00 0.00 0.00 0.00 0.00 0.00 0.00 0.00 0.00 0.00 0.00 0.00 0.00 0.00 0.00 0.00 0.00 0.00 0.00
0.00 0.00 0.00 0.00 0.00 0.00 0.00 0.00 0.00 0.00 0.00 0.00 0.00 0.00 0.00 0.00 0.00 0.00 0.00 0.00 0.00 0.00 0.00 0.00 0.00 0.00 0.00 0.00 0.00 0.00 0.00 0.00 0.00 0.00 0.00 0.00 0.00 0.00 0.00 0.00 0.00 0.00 0.00 0.00
MSLP
1019.20 1019.35 1019.42 1019.44 1019.42 1019.39 1019.33 1019.22 1019.01 1018.65 1018.11 1017.36 1016.40 1015.29 1014.09 1012.90 1011.83 1010.96 1010.35 1010.05 1010.05 1010.31 1010.80 1011.45 1012.19 1013.00 1013.83 1014.67 1015.51 1016.34 1017.14 1017.91 1018.64 1019.31 1019.91 1020.45 1020.94 1021.39 1021.83 1022.26 1022.71 1023.17 1023.63 1024.09
1019.34 1019.40 1019.38 1019.33 1019.26 1019.19 1019.13 1019.03 1018.84 1018.51 1017.98 1017.23 1016.26 1015.11 1013.87 1012.62 1011.48 1010.55 1009.90 1009.55 1009.51 1009.74 1010.18 1010.78 1011.47 1012.21 1012.97 1013.73 1014.49 1015.25 1016.00 1016.74 1017.44 1018.11 1018.71 1019.25 1019.74 1020.19 1020.62 1021.05 1021.50 1021.97 1022.46 1022.96
1019.38 1019.36 1019.28 1019.19 1019.10 1019.04 1019.00 1018.94 1018.80 1018.51 1018.00 1017.26 1016.27 1015.10 1013.81 1012.52 1011.34 1010.37 1009.68 1009.30 1009.22 1009.41 1009.80 1010.32 1010.92 1011.55 1012.20 1012.84 1013.49 1014.16 1014.84 1015.52 1016.20 1016.84 1017.44 1017.99 1018.47 1018.91 1019.32 1019.73 1020.17 1020.64 1021.15 1021.68
1019.33 1019.26 1019.15 1019.05 1018.98 1018.96 1018.98 1018.98 1018.89 1018.63 1018.15 1017.40 1016.39 1015.18 1013.85 1012.52 1011.31 1010.31 1009.59 1009.19 1009.08 1009.23 1009.55 1009.99 1010.48 1010.98 1011.48 1011.99 1012.51 1013.06 1013.65 1014.28 1014.92 1015.54 1016.14 1016.67 1017.14 1017.56 1017.95 1018.34 1018.75 1019.21 1019.73 1020.29
1019.20 1019.11 1019.01 1018.93 1018.92 1018.97 1019.06 1019.12 1019.07 1018.84 1018.35 1017.58 1016.53 1015.27 1013.89 1012.52 1011.27 1010.26 1009.53 1009.11 1008.99 1009.09 1009.35 1009.70 1010.07 1010.44 1010.79 1011.15 1011.53 1011.96 1012.47 1013.02 1013.62 1014.23 1014.81 1015.33 1015.79 1016.18 1016.54 1016.90 1017.28 1017.72 1018.23 1018.81
1019.03 1018.94 1018.87 1018.85 1018.91 1019.04 1019.20 1019.31 1019.30 1019.06 1018.55 1017.72 1016.62 1015.29 1013.86 1012.45 1011.18 1010.15 1009.42 1009.01 1008.87 1008.94 1009.15 1009.41 1009.67 1009.90 1010.11 1010.32 1010.57 1010.89 1011.29 1011.79 1012.35 1012.93 1013.50 1014.01 1014.45 1014.83 1015.15 1015.47 1015.83 1016.24 1016.75 1017.33
1018.84 1018.78 1018.76 1018.81 1018.94 1019.14 1019.35 1019.50 1019.48 1019.22 1018.65 1017.76 1016.58 1015.20 1013.71 1012.27 1010.99 1009.97 1009.26 1008.86 1008.72 1008.77 1008.93 1009.11 1009.27 1009.38 1009.45 1009.53 1009.65 1009.86 1010.18 1010.62 1011.14 1011.70 1012.25 1012.76 1013.19 1013.55 1013.85 1014.14 1014.46 1014.85 1015.33 1015.91
1018.68 1018.65 1018.67 1018.78 1018.97 1019.22 1019.45 1019.60 1019.55 1019.24 1018.60 1017.65 1016.41 1014.97 1013.46 1012.02 1010.75 1009.76 1009.08 1008.71 1008.58 1008.61 1008.73 1008.84 1008.90 1008.90 1008.85 1008.80 1008.80 1008.92 1009.17 1009.55 1010.03 1010.58 1011.12 1011.63 1012.05 1012.39 1012.67 1012.93 1013.22 1013.59 1014.05 1014.61
1018.56 1018.56 1018.62 1018.76 1018.98 1019.23 1019.45 1019.56 1019.46 1019.08 1018.38 1017.36 1016.09 1014.64 1013.15 1011.74 1010.53 1009.60 1008.97 1008.63 1008.52 1008.54 1008.61 1008.65 1008.62 1008.51 1008.34 1008.18 1008.09 1008.11 1008.29 1008.62 1009.08 1009.60 1010.14 1010.64 1011.06 1011.39 1011.66 1011.90 1012.16 1012.49 1012.92 1013.46
1018.51 1018.52 1018.59 1018.74 1018.94 1019.15 1019.32 1019.35 1019.18 1018.73 1017.98 1016.94 1015.66 1014.25 1012.83 1011.51 1010.39 1009.56 1009.01 1008.71 1008.62 1008.62 1008.64 1008.61 1008.48 1008.26 1007.99 1007.72 1007.53 1007.47 1007.59 1007.87 1008.29 1008.79 1009.32 1009.81 1010.23 1010.55 1010.80 1011.03 1011.26 1011.56 1011.95 1012.44
1018.52 1018.53 1018.59 1018.69 1018.83 1018.96 1019.04 1018.98 1018.72 1018.21 1017.43 1016.40 1015.19 1013.87 1012.57 1011.39 1010.42 1009.70 1009.24 1009.00 1008.91 1008.89 1008.85 1008.73 1008.50 1008.17 1007.79 1007.43 1007.15 1007.02 1007.07 1007.30 1007.68 1008.15 1008.65 1009.12 1009.52 1009.84 1010.08 1010.28 1010.48 1010.74 1011.09 1011.53
1018.59 1018.58 1018.59 1018.62 1018.66 1018.68 1018.64 1018.47 1018.12 1017.56 1016.78 1015.81 1014.70 1013.53 1012.41 1011.41 1010.60 1010.03 1009.66 1009.48 1009.39 1009.33 1009.22 1009.00 1008.66 1008.23 1007.75 1007.29 1006.93 1006.72 1006.71 1006.88 1007.21 1007.63 1008.09 1008.53 1008.91 1009.19 1009.41 1009.58 1009.76 1009.98 1010.27 1010.67
1018.70 1018.64 1018.59 1018.52 1018.44 1018.33 1018.15 1017.86 1017.43 1016.84 1016.09 1015.21 1014.24 1013.26 1012.33 1011.54 1010.92 1010.48 1010.22 1010.07 1009.97 1009.86 1009.66 1009.34 1008.90 1008.37 1007.79 1007.26 1006.82 1006.54 1006.46 1006.57 1006.83 1007.19 1007.60 1007.98 1008.31 1008.56 1008.74 1008.88 1009.02 1009.20 1009.45 1009.78
1018.81 1018.71 1018.57 1018.40 1018.19 1017.94 1017.62 1017.22 1016.72 1016.11 1015.40 1014.62 1013.81 1013.02 1012.31 1011.72 1011.28 1010.98 1010.79 1010.67 1010.55 1010.38 1010.09 1009.68 1009.14 1008.52 1007.87 1007.27 1006.77 1006.43 1006.28 1006.32 1006.50 1006.79 1007.11 1007.42 1007.68 1007.88 1008.01 1008.11 1008.21 1008.35 1008.56 1008.84
1018.90 1018.75 1018.54 1018.26 1017.93 1017.54 1017.09 1016.59 1016.02 1015.40 1014.74 1014.07 1013.42 1012.81 1012.30 1011.90 1011.60 1011.41 1011.28 1011.17 1011.02 1010.78 1010.42 1009.92 1009.31 1008.62 1007.92 1007.27 1006.72 1006.34 1006.13 1006.09 1006.18 1006.37 1006.60 1006.82 1007.00 1007.13 1007.20 1007.25 1007.32 1007.42 1007.59 1007.84
1018.94 1018.75 1018.47 1018.09 1017.65 1017.14 1016.58 1015.98 1015.36 1014.74 1014.13 1013.55 1013.04 1012.59 1012.24 1011.99 1011.81 1011.70 1011.60 1011.48 1011.29 1010.99 1010.56 1010.00 1009.34 1008.62 1007.89 1007.22 1006.65 1006.23 1005.96 1005.85 1005.85 1005.94 1006.06 1006.17 1006.26 1006.31 1006.32 1006.32 1006.35 1006.43 1006.57 1006.79
1018.91 1018.68 1018.33 1017.88 1017.33 1016.73 1016.08 1015.41 1014.76 1014.14 1013.57 1013.08 1012.66 1012.34 1012.11 1011.96 1011.86 1011.79 1011.70 1011.56 1011.33 1010.98 1010.50 1009.91 1009.23 1008.50 1007.78 1007.11 1006.54 1006.10 1005.79 1005.60 1005.51 1005.48 1005.49 1005.49 1005.48 1005.44 1005.40 1005.36 1005.35 1005.40 1005.53 1005.73
1018.78 1018.50 1018.10 1017.58 1016.97 1016.29 1015.58 1014.87 1014.20 1013.59 1013.06 1012.63 1012.29 1012.06 1011.91 1011.82 1011.76 1011.70 1011.60 1011.43 1011.16 1010.77 1010.27 1009.67 1009.00 1008.30 1007.61 1006.97 1006.41 1005.95 1005.60 1005.34 1005.16 1005.03 1004.92 1004.81 1004.70 1004.59 1004.49 1004.41 1004.38 1004.41 1004.52 1004.71
1018.52 1018.20 1017.74 1017.18 1016.51 1015.79 1015.05 1014.33 1013.66 1013.07 1012.59 1012.21 1011.94 1011.76 1011.66 1011.60 1011.55 1011.49 1011.36 1011.16 1010.86 1010.45 1009.95 1009.36 1008.72 1008.06 1007.41 1006.81 1006.27 1005.80 1005.42 1005.10 1004.83 1004.59 1004.38 1004.17 1003.97 1003.79 1003.63 1003.52 1003.47 1003.49 1003.59 1003.76
1018.13 1017.75 1017.24 1016.63 1015.94 1015.20 1014.47 1013.76 1013.12 1012.58 1012.14 1011.82 1011.60 1011.47 1011.40 1011.36 1011.31 1011.23 1011.08 1010.84 1010.52 1010.10 1009.60 1009.04 1008.44 1007.83 1007.23 1006.67 1006.15 1005.68 1005.26 1004.88 1004.53 1004.20 1003.89 1003.59 1003.31 1003.07 1002.87 1002.72 1002.65 1002.66 1002.75 1002.90
1017.60 1017.14 1016.58 1015.93 1015.23 1014.50 1013.79 1013.13 1012.56 1012.08 1011.72 1011.47 1011.31 1011.22 1011.18 1011.15 1011.10 1010.99 1010.82 1010.56 1010.22 1009.80 1009.32 1008.78 1008.22 1007.66 1007.10 1006.56 1006.06 1005.58 1005.12 1004.68 1004.26 1003.85 1003.45 1003.08 1002.73 1002.43 1002.20 1002.03 1001.94 1001.93 1001.99 1002.12
1016.95 1016.39 1015.76 1015.09 1014.39 1013.69 1013.04 1012.46 1011.97 1011.59 1011.32 1011.15 1011.07 1011.03 1011.03 1011.01 1010.95 1010.83 1010.64 1010.37 1010.01 1009.59 1009.12 1008.61 1008.08 1007.54 1007.01 1006.50 1005.99 1005.49 1005.00 1004.51 1004.02 1003.54 1003.07 1002.63 1002.23 1001.89 1001.62 1001.43 1001.31 1001.28 1001.32 1001.41
1016.19 1015.53 1014.84 1014.14 1013.46 1012.81 1012.24 1011.76 1011.38 1011.12 1010.96 1010.89 1010.88 1010.91 1010.94 1010.94 1010.89 1010.76 1010.55 1010.26 1009.90 1009.47 1009.00 1008.50 1007.99 1007.47 1006.95 1006.44 1005.93 1005.41 1004.88 1004.34 1003.79 1003.25 1002.73 1002.23 1001.79 1001.41 1001.11 1000.89 1000.75 1000.69 1000.69 1000.74
1015.38 1014.63 1013.88 1013.16 1012.51 1011.92 1011.44 1011.08 1010.83 1010.69 1010.65 1010.69 1010.76 1010.85 1010.92 1010.94 1010.88 1010.74 1010.52 1010.21 1009.83 1009.39 1008.91 1008.42 1007.91 1007.39 1006.88 1006.36 1005.83 1005.28 1004.72 1004.14 1003.55 1002.97 1002.40 1001.87 1001.39 1000.99 1000.66 1000.41 1000.24 1000.14 1000.10 1000.10
1014.57 1013.74 1012.95 1012.24 1011.62 1011.11 1010.74 1010.49 1010.37 1010.35 1010.43 1010.55 1010.70 1010.84 1010.93 1010.96 1010.90 1010.74 1010.49 1010.15 1009.75 1009.30 1008.81 1008.30 1007.79 1007.27 1006.74 1006.21 1005.66 1005.10 1004.51 1003.90 1003.29 1002.67 1002.08 1001.53 1001.03 1000.60 1000.24 999.97 999.76 999.62 999.53 999.48
1013.85 1012.96 1012.16 1011.47 1010.90 1010.48 1010.20 1010.06 1010.05 1010.14 1010.30 1010.50 1010.69 1010.85 1010.95 1010.96 1010.87 1010.69 1010.40 1010.03 1009.60 1009.12 1008.62 1008.09 1007.57 1007.04 1006.51 1005.97 1005.41 1004.83 1004.23 1003.61 1002.98 1002.36 1001.76 1001.19 1000.68 1000.23 999.86 999.55 999.31 999.13 998.99 998.89
Thickness
5695 5694 5694 5698 5696 5693 5688 5685 5689 5697 5697 5682 5694 5708 5727 5735 5730 5729 5729 5729 5730 5729 5727 5721 5711 5701 5692 5683 5676 5669 5661 5652 5643 5635 5628 5622 5616 5608 5601 5594 5587 5579 5572 5563
5689 5690 5696 5690 5683 5679 5679 5679 5688 5697 5683 5678 5691 5705 5724 5729 5726 5725 5725 5727 5727 5726 5723 5717 5708 5699 5692 5685 5678 5670 5663 5655 5647 5639 5631 5624 5615 5609 5602 5592 5585 5578 5570 5561
5684 5691 5683 5680 5678 5676 5678 5677 5684 5681 5683 5680 5676 5708 5727 5732 5724 5721 5721 5720 5720 5717 5716 5713 5704 5696 5690 5685 5678 5671 5664 5656 5647 5637 5626 5618 5611 5606 5600 5593 5585 5577 5568 5559
5682 5684 5676 5675 5676 5674 5677 5677 5670 5666 5668 5677 5668 5677 5713 5720 5719 5722 5724 5721 5718 5713 5710 5706 5701 5694 5688 5682 5675 5668 5661 5653 5645 5634 5627 5621 5615 5612 5607 5596 5586 5575 5565 5557
5683 5678 5673 5672 5675 5670 5673 5665 5663 5660 5661 5663 5666 5663 5698 5713 5711 5713 5715 5714 5711 5707 5703 5700 5696 5691 5686 5679 5671 5664 5656 5650 5642 5633 5627 5619 5615 5612 5604 5595 5586 5575 5565 5555
5677 5673 5672 5671 5666 5663 5662 5659 5656 5652 5657 5660 5664 5660 5684 5707 5701 5700 5704 5704 5702 5699 5697 5694 5691 5687 5682 5675 5668 5660 5653 5648 5639 5631 5624 5618 5614 5607 5600 5594 5585 5574 5564 5554
5673 5671 5667 5665 5662 5659 5657 5659 5662 5661 5661 5664 5651 5650 5676 5702 5697 5690 5688 5690 5690 5691 5691 5689 5687 5684 5678 5672 5665 5658 5652 5646 5637 5629 5622 5616 5610 5602 5597 5591 5582 5570 5561 5551
5662 5668 5665 5661 5659 5657 5653 5651 5648 5641 5648 5657 5647 5650 5686 5701 5693 5685 5681 5680 5682 5684 5684 5682 5681 5678 5674 5669 5663 5656 5650 5643 5635 5627 5620 5611 5603 5594 5591 5584 5576 5567 5559 5549
5659 5661 5657 5652 5651 5649 5646 5644 5640 5636 5636 5629 5648 5658 5677 5694 5690 5684 5680 5676 5674 5674 5673 5673 5672 5671 5668 5664 5658 5652 5645 5638 5631 5623 5614 5606 5597 5589 5583 5575 5567 5560 5552 5542
5655 5651 5655 5645 5642 5637 5638 5637 5629 5627 5624 5626 5641 5646 5664 5679 5681 5677 5670 5666 5666 5664 5663 5662 5662 5660 5658 5655 5650 5644 5638 5632 5624 5615 5607 5599 5591 5583 5574 5566 5560 5553 5544 5534
5646 5643 5646 5641 5639 5642 5627 5624 5625 5626 5622 5619 5624 5645 5669 5668 5666 5657 5653 5654 5652 5650 5649 5649 5648 5647 5645 5643 5638 5633 5627 5620 5614 5606 5599 5591 5583 5575 5567 5560 5554 5545 5537 5527
5636 5636 5637 5642 5636 5628 5629 5630 5624 5619 5623 5615 5616 5639 5671 5663 5651 5642 5641 5640 5637 5633 5632 5633 5633 5634 5633 5630 5626 5621 5615 5609 5602 5595 5588 5582 5574 5567 5560 5553 5546 5537 5529 5520
5625 5626 5625 5634 5627 5617 5616 5616 5614 5614 5611 5612 5609 5634 5660 5652 5646 5640 5631 5625 5621 5618 5618 5619 5619 5619 5618 5616 5612 5608 5602 5596 5590 5583 5576 5571 5565 5558 5553 5546 5538 5530 5522 5513
5621 5622 5621 5622 5630 5628 5617 5612 5606 5602 5604 5612 5620 5632 5647 5645 5635 5626 5617 5611 5608 5606 5605 5604 5604 5605 5604 5602 5599 5595 5591 5584 5577 5570 5565 5560 5555 5550 5544 5537 5530 5522 5514 5506
5610 5614 5619 5621 5621 5615 5611 5612 5611 5604 5608 5607 5622 5624 5632 5626 5615 5609 5604 5599 5595 5594 5592 5590 5588 5589 5589 5589 5587 5583 5578 5573 5566 5560 5554 5550 5545 5539 5533 5527 5520 5513 5505 5497
5601 5603 5603 5607 5610 5606 5605 5613 5613 5610 5610 5610 5612 5614 5618 5606 5601 5596 5593 5588 5584 5582 5580 5578 5576 5575 5575 5574 5572 5569 5567 5562 5556 5550 5545 5540 5533 5528 5523 5517 5512 5505 5498 5489
5596 5595 5593 5602 5602 5593 5604 5621 5617 5612 5613 5609 5607 5610 5599 5592 5587 5584 5582 5578 5574 5571 5569 5567 5565 5564 5562 5560 5557 5555 5553 5550 5545 5540 5534 5528 5522 5517 5513 5508 5503 5497 5491 5483
5594 5585 5583 5586 5584 5582 5622 5621 5611 5607 5609 5607 5601 5595 5587 5580 5577 5575 5575 5569 5565 5561 5559 5558 5555 5553 5550 5548 5546 5543 5540 5538 5534 5530 5525 5519 5512 5507 5504 5501 5496 5491 5484 5478
5583 5579 5576 5572 5577 5594 5611 5610 5600 5594 5598 5598 5589 5582 5578 5574 5572 5574 5569 5559 5554 5551 5549 5546 5543 5540 5538 5536 5534 5530 5529 5528 5524 5520 5516 5510 5504 5499 5496 5493 5490 5485 5478 5472
5566 5570 5570 5564 5558 5576 5607 5594 5586 5582 5585 5584 5577 5572 5568 5564 5562 5565 5556 5550 5547 5543 5539 5535 5531 5529 5527 5525 5521 5517 5517 5516 5514 5511 5507 5503 5499 5495 5491 5488 5484 5478 5472 5465
5564 5559 5560 5561 5559 5582 5595 5580 5574 5570 5579 5571 5566 5561 5556 5551 5548 5549 5545 5540 5536 5532 5527 5523 5519 5517 5515 5513 5509 5507 5507 5506 5503 5499 5496 5493 5491 5488 5485 5481 5476 5470 5464 5456
5571 5566 5561 5559 5557 5570 5583 5568 5569 5572 5567 5560 5556 5550 5545 5542 5539 5536 5532 5528 5523 5518 5514 5510 5506 5504 5502 5500 5498 5497 5496 5494 5490 5487 5485 5484 5482 5479 5474 5471 5466 5460 5453 5447
5561 5568 5572 5566 5573 5582 5569 5565 5563 5555 5551 5548 5543 5538 5532 5529 5526 5522 5517 5513 5509 5504 5501 5497 5494 5493 5492 5489 5486 5485 5484 5481 5479 5476 5475 5474 5472 5469 5465 5461 5456 5450 5443 5437
5556 5553 5552 5558 5568 5566 5560 5554 5549 5543 5538 5534 5528 5523 5518 5514 5511 5506 5501 5497 5493 5490 5487 5484 5482 5481 5481 5478 5474 5472 5471 5469 5467 5466 5465 5464 5461 5460 5456 5450 5444 5439 5434 5428
5546 5544 5545 5549 5554 5552 5550 5540 5534 5529 5523 5518 5513 5508 5502 5497 5493 5489 5485 5483 5479 5476 5473 5470 5468 5468 5468 5466 5464 5461 5459 5457 5456 5455 5455 5453 5450 5449 5446 5441 5435 5430 5425 5418
5537 5532 5531 5541 5542 5536 5536 5526 5519 5513 5508 5502 5496 5492 5486 5479 5476 5472 5470 5467 5464 5462 5460 5458 5457 5456 5456 5454 5453 5450 5448 5445 5444 5443 5443 5442 5440 5437 5434 5431 5427 5421 5413 5408